Location: Lane County Rural Fire Department Beeler Station
(38.4456°N, 100.1929°W)
Time: 01:39:59
(UTC+00:00)

Daily predictions for brighter satellites

Satellite Brightness Start Highest point End
(mag) Time Altitude Azimuth Time Altitude Azimuth Time Altitude Azimuth
ATLAS 5 CENTAUR R/B 4.2 00:02:50 10° NNW 00:05:40 12° N 00:07:39 10° NNE
Cosmos 990 Rocket 4.0 00:01:13 10° NNW 00:06:26 87° ENE 00:11:35 10° SSE
CZ-2D R/B 3.7 00:06:54 10° SE 00:10:30 39° ENE 00:14:05 10° N
CORIOLIS 4.1 00:05:20 10° SSE 00:10:41 73° ENE 00:16:06 10° N
Cosmos 1340 Rocket 3.4 00:06:44 10° NNW 00:10:46 63° W 00:14:47 10° S
CZ-4B DEB 4.2 00:06:59 10° SSE 00:12:26 64° ENE 00:17:53 10° N
Cosmos 1634 Rocket 4.0 00:07:19 10° S 00:13:35 67° E 00:19:51 10° NNE
USA 267 4.3 00:08:43 10° NE 00:14:39 39° NNW 00:20:35 10° W
CZ-2C R/B 3.5 00:14:20 10° S 00:16:50 15° SSE 00:19:17 10° ESE
SJ 16-02 4.5 00:15:33 10° WNW 00:18:16 16° W 00:20:59 10° SW
COSMOS 2406 3.6 00:18:13 10° SSW 00:23:55 68° WNW 00:29:40 10° NNE
Cosmos 2026 Rocket 3.9 00:18:55 10° N 00:25:03 73° E 00:31:05 10° SSE
Cosmos 1500 3.2 00:22:06 10° N 00:25:46 52° E 00:29:22 10° SSE
ARGOS 3.6 00:22:38 10° SE 00:27:32 36° ENE 00:32:27 10° N
SKYMED 2 3.8 00:23:32 10° NNE 00:27:44 47° E 00:31:54 10° S
Cosmos 2195 Rocket 4.5 00:22:11 10° N 00:28:22 89° W 00:34:35 10° S
Cosmos 1833 Rocket 3.7 00:23:41 10° SW 00:29:03 46° WNW 00:34:29 10° N
Landsat 5 4.1 00:26:38 16° NE 00:29:21 32° E 00:32:55 10° SSE
COSMOS 2455 2.9 00:24:09 10° SSW 00:30:09 83° WNW 00:36:14 10° NNE
Cosmos 858 Rocket 4.4 00:25:07 10° NNW 00:30:24 68° ENE 00:35:37 10° SSE
MOS 1-B Rocket 4.1 00:26:36 10° NNE 00:32:37 77° ESE 00:39:32 10° S
USA 229 DEB 4.0 00:25:18 10° NNW 00:32:49 88° ENE 00:40:43 10° SSE
USA 229 4.0 00:25:24 10° NNW 00:32:55 88° ENE 00:40:48 10° SSE
Meteor 2-14 Rocket 4.4 00:29:10 10° N 00:35:18 81° E 00:41:21 10° S
PSLV R/B 3.7 00:33:09 10° S 00:36:49 78° WSW 00:40:32 10° NNW
SMAP 4.1 00:33:40 10° S 00:38:09 48° W 00:42:40 10° NNW
Cosmos 1570 Rocket 4.0 00:34:23 10° S 00:39:32 59° ESE 00:43:57 14° NNE
PAYLOAD B 4.2 00:34:37 10° SSE 00:40:14 87° ENE 00:45:52 10° NNW
Cosmos 540 Rocket 4.3 00:36:09 10° SW 00:41:05 49° WNW 00:46:03 10° N
Sich 1 3.1 00:38:51 10° N 00:43:09 77° W 00:47:27 10° S
Cosmos 1805 Rocket 4.2 00:39:04 10° NNW 00:43:20 58° W 00:47:34 10° S
GPS 2-04 Rocket1 3.2 00:40:52 10° W 00:44:54 56° S 00:47:01 25° ESE
USA 234 3.2 00:39:12 10° SE 00:45:45 86° NE 00:52:19 10° NW
CZ-4B R/B 3.1 00:40:32 10° SSE 00:45:55 67° ENE 00:51:15 10° N
Cosmos 1814 Rocket 3.9 00:41:11 10° SSW 00:46:25 81° ESE 00:51:10 13° NNE
CZ-4C R/B 3.5 00:51:56 37° SE 00:51:56 37° SE 00:54:36 10° S
Cosmos 1900 4.3 00:47:37 10° SSW 00:52:24 63° ESE 00:54:41 30° NE
CZ-2C R/B 2.5 00:47:36 10° NNE 00:52:48 88° ESE 00:57:58 10° SSW
deb Chang Zheng 4 3.4 00:49:01 10° SSE 00:53:18 72° ENE 00:57:36 10° N
Meteor 2-8 Rocket 4.4 00:49:03 10° S 00:55:06 66° E 01:01:13 10° NNE
Cosmos 1666 2.5 00:51:40 10° N 00:55:22 65° E 00:59:02 10° SSE
Meteor 1-10 Rocket 4.5 00:49:56 10° SSE 00:55:28 47° E 00:59:17 19° NNE
Cosmos 1515 Rocket 4.2 00:53:10 10° SSE 00:56:51 35° ESE 00:56:51 35° ESE
Meteor 2-21 Rocket 4.4 00:51:19 10° N 00:57:27 89° E 01:03:30 10° S
NOSS 2-2 (D) 4.5 00:56:44 10° NNW 01:02:22 73° ENE 01:10:17 10° SE
YAOGAN 3 4.4 00:59:43 10° SSE 01:04:03 80° ENE 01:08:26 10° N
Feng Yun 1-1 Rocket 4.4 01:02:01 10° SSE 01:07:46 55° ENE 01:13:30 10° N
X-37B 2.9 01:05:49 10° SSW 01:06:34 14° S 01:06:34 14° S
Cosmos 1812 3.8 01:04:29 10° SSW 01:08:09 45° W 01:11:52 10° N
Cosmos 2208 Rocket 4.0 01:07:13 10° SSW 01:12:36 86° WNW 01:16:02 24° NNE
USA 276 3.7 01:10:05 10° WNW 01:12:55 32° SW 01:13:40 27° SSW
SJ-11-01 4.3 01:08:43 10° S 01:13:28 80° W 01:18:13 10° NNW
H-2A R/B 3.1 01:09:42 10° S 01:14:42 47° W 01:19:37 10° NNW
CZ-4C R/B 3.0 01:08:00 10° NNW 01:15:25 63° NE 01:21:47 19° SE
COSMO-SKYMED 1 3.5 01:11:35 10° N 01:15:45 47° WNW 01:19:55 10° SSW
APEX 4.1 01:12:21 10° S 01:15:27 38° SSE 01:15:27 38° SSE
ATLAS CENTAUR R/B 4.3 01:10:53 10° W 01:17:43 24° NW 01:20:38 14° N
Cosmos 921 Rocket 2.8 01:20:13 10° SSW 01:24:15 84° SSW 01:24:15 84° SSW
Spot 2 4.4 01:19:37 10° SSE 01:24:40 64° ENE 01:29:45 10° N
USA 32 4.2 01:21:33 10° S 01:25:45 51° SE 01:25:45 51° SE
Cosmos 1633 Rocket 3.6 01:22:44 10° NNW 01:27:02 57° W 01:31:19 10° S
DMSP B5D1-3 4.3 01:29:45 70° E 01:29:47 70° ESE 01:34:52 10° S
Cosmos 2322 Rocket 4.1 01:28:09 10° N 01:29:18 15° N 01:29:18 15° N
Okean O Rocket 2.6 01:29:43 10° S 01:33:59 46° W 01:38:17 10° NNW
ISS -1.0 01:34:30 10° NW 01:35:04 14° NW 01:35:04 14° NW
Cosmos 1980 Rocket 3.1 01:34:07 10° NW 01:39:32 48° WSW 01:44:54 10° S
SL-24 R/B - RUBIN 2 4.3 01:35:44 10° NW 01:39:59 49° WSW 01:40:45 44° SSW
Cosmos 2082 Rocket 4.2 01:45:14 10° WSW 01:49:42 24° NW 01:53:51 11° N
SL-16 R/B 3.8 01:44:53 10° NNW 01:46:59 23° N 01:46:59 23° N
Cosmos 2266 Rocket 4.1 01:45:35 10° N 01:51:58 78° W 01:58:22 10° S
CZ-2C R/B 3.4 01:52:02 10° SW 01:53:47 22° SW 01:53:47 22° SW
Meteor 1-27 Rocket 4.2 01:57:23 10° SSW 02:01:40 53° SW 02:01:40 53° SW
CZ-4C R/B 4.5 02:57:08 10° NW 03:03:53 32° WSW 03:07:13 25° SSW
Cosmos 1943 Rocket 4.4 10:35:16 17° NNE 10:35:16 17° NNE 10:36:27 10° NNE
CENTAUR R/B 3.9 10:38:46 30° NNE 10:38:46 30° NNE 10:42:10 10° NNE
Cosmos 2034 Rocket 4.4 10:51:33 57° SSE 10:51:33 57° SSE 10:56:33 10° SSE
NOSS 3-2 (C) 4.2 11:00:55 38° NNE 11:00:55 38° NNE 11:04:49 10° NNE
Tsikada Rocket 3.8 11:10:50 10° S 11:17:01 81° W 11:23:19 10° N
Meteor 2-3 Rocket 4.4 11:22:52 40° N 11:22:52 40° N 11:26:29 10° N
Cosmos 2344 4.2 11:24:08 34° NNW 11:24:08 34° NNW 11:30:13 10° NNE
USA 238 DEB 4.1 11:27:36 42° NNW 11:27:36 42° NNW 11:33:10 10° NNE
USA 238 4.0 11:27:40 42° NNW 11:27:40 42° NNW 11:33:16 10° NNE
Hubble Space Telescope 3.4 11:29:19 10° S 11:29:19 10° S 11:29:32 10° S
Meteor 1-31 Rocket 4.3 11:24:43 10° NNE 11:28:21 35° E 11:31:56 10° SSE
Cosmos 921 Rocket 3.5 11:30:39 46° NNE 11:31:42 60° ENE 11:36:07 10° SSE
Cosmos 1782 3.6 11:33:13 42° SSE 11:33:13 42° SSE 11:35:53 10° S
USA 215 4.3 11:28:24 10° E 11:34:17 37° NNE 11:37:55 21° NNW
H-2A R/B 3.0 11:32:10 10° NNE 11:35:51 64° E 11:39:35 10° S
Cosmos 1241 Rocket 4.3 11:34:24 48° NW 11:36:13 78° WSW 11:42:24 10° SSE
Cosmos 1862 4.1 11:33:21 10° SSE 11:37:09 49° E 11:40:58 10° NNE
Cosmos 2263 4.2 11:33:47 10° SSW 11:39:27 84° ESE 11:45:13 10° NNE
Okean 3 Rocket 4.3 11:36:37 10° S 11:41:01 54° E 11:45:28 10° NNE
Meteor 1-26 Rocket 4.1 11:38:32 26° NNW 11:41:58 73° W 11:47:39 10° S
Cosmos 2208 Rocket 4.1 11:43:24 54° W 11:43:49 55° WSW 11:49:01 10° S
Cosmos 1867 3.7 11:43:54 50° WSW 11:44:09 50° WSW 11:49:22 10° S
Gbstr 26 Del rocket 3.7 11:46:53 35° SSW 11:46:53 35° SSW 11:50:10 10° SSE
Cosmos 1151 Rocket 3.5 11:42:46 15° N 11:46:16 61° E 11:50:35 10° SSE
Cosmos 1503 Rocket 4.3 11:42:43 10° S 11:47:55 68° ESE 11:53:12 10° NNE
BREEZE-M DEB (TANK) 4.3 11:37:03 24° NW 11:49:44 88° SW 11:55:19 10° SE
Cosmos 1766 Rocket 3.6 11:45:31 10° S 11:49:50 78° E 11:54:11 10° N
Cosmos 2369 Rocket 2.2 11:47:55 32° SW 11:50:20 56° WNW 11:55:51 10° NNE
SJ-12 3.8 11:46:38 10° N 11:50:47 80° WNW 11:54:54 10° SSW
